Flag for Canada Weather past 2 weeks in Niagara Falls, Ontario, Canada

Now
77 °F

Partly sunny.


Feels Like: 79 °F
Forecast: 63 / 79 °F
Wind: 12 mph from South

Location: Niagara Falls International Airport

Current Time: Jul 26, 2014 at 1:23:24 PM

Latest Report: Jul 26, 2014 at 12:53 PM


Visibility: 10 mi

Pressure: 29.89 "Hg

Humidity: 56%

Dew point: 60 °F

Location of Niagara FallsLocation

Historic Weather in Niagara Falls — Graph

°F

Niagara Falls temperature yesterday

Maximum temperature yesterday: 75 °F (at 1:53 PM)
Minimum temperature yesterday: 53 °F (at 5:53 AM)
Average temperature yesterday: 66 °F

Past Weeks' High & Low Weather Summary

 TemperatureHumidityPressure
High83 °F (Jul 13, 5:53 PM)96% (Jul 21, 6:00 AM)30.24 "Hg (Jul 21, 6:00 AM)
Low52 °F (Jul 18, 5:53 AM)33% (Jul 18, 4:53 PM)29.66 "Hg (Jul 15, 9:53 AM)
Average68 °F71%29.99 "Hg
* Reported Jul 11 11:53 AM — Jul 26 11:53 AM, Niagara Falls, Weather by CustomWeather, © 2014

Note: Actual official high and low records may vary slightly from our data, if they occured in-between our weather recording intervals... More about our weather records

Advertising

Niagara Falls weather history for previous 24 hours

 ConditionsComfort  
Time TempWeatherWind HumidityBarometerVisibility
11:53 AM
Jul 26
75 °FBroken clouds.13 mph60%29.91 "Hg10 mi
10:53 AM76 °FBroken clouds.13 mph58%29.91 "Hg10 mi
9:53 AM72 °FBroken clouds.14 mph61%29.92 "Hg10 mi
8:53 AM72 °FBroken clouds.12 mph71%29.93 "Hg10 mi
7:53 AM68 °FBroken clouds.8 mph78%29.93 "Hg10 mi
6:53 AM65 °FPassing clouds.7 mph85%29.93 "Hg10 mi
5:53 AM65 °FPartly cloudy.7 mph81%29.93 "Hg10 mi
4:53 AM64 °FPassing clouds.6 mph84%29.93 "Hg10 mi
3:53 AM63 °FPassing clouds.6 mph81%29.93 "Hg10 mi
2:53 AM64 °FClear.3 mph78%29.93 "Hg10 mi
1:53 AM63 °FClear.8 mph78%29.95 "Hg10 mi
12:53 AM62 °FClear.8 mph80%29.96 "Hg10 mi
11:53 PM
Jul 25
63 °FClear.7 mph78%29.96 "Hg10 mi
10:53 PM65 °FPassing clouds.9 mph70%29.96 "Hg10 mi
9:53 PM65 °FPassing clouds.8 mph70%29.97 "Hg10 mi
8:53 PM67 °FPartly sunny.9 mph66%29.96 "Hg10 mi
7:53 PM69 °FPartly sunny.10 mph59%29.97 "Hg10 mi
6:53 PM71 °FBroken clouds.13 mph57%29.97 "Hg10 mi
5:53 PM74 °FPartly sunny.16 mph53%29.97 "Hg10 mi
4:53 PM74 °FBroken clouds.12 mph46%29.97 "Hg10 mi
3:53 PM75 °FScattered clouds.17 mph48%29.99 "Hg10 mi
2:53 PM75 °FPartly sunny.16 mph43%30.01 "Hg10 mi
1:53 PM75 °FPartly sunny.15 mph45%30.00 "Hg10 mi
Weather by CustomWeather, © 2014

See weather overviewHow to use our weather pages